TimeMST,TemperatureF,Dew PointF,Humidity,Sea Level PressureIn,VisibilityMPH,Wind Direction,Wind SpeedMPH,Gust SpeedMPH,PrecipitationIn,Events,Conditions,WindDirDegrees,DateUTC
12:51 AM,46.0,33.1,61,29.72,10.0,NW,17.3,-,N/A,,Partly Cloudy,310,2013-01-29 07:51:00
1:51 AM,45.0,32.0,60,29.74,10.0,NW,15.0,-,N/A,,Mostly Cloudy,320,2013-01-29 08:51:00
2:40 AM,42.8,30.2,61,29.86,10.0,WNW,15.0,28.8,N/A,,Overcast,290,2013-01-29 09:40:00
2:51 AM,41.0,30.9,67,29.76,10.0,WNW,16.1,26.5,N/A,,Overcast,290,2013-01-29 09:51:00
3:21 AM,42.8,28.4,57,29.86,10.0,West,20.7,32.2,N/A,,Overcast,280,2013-01-29 10:21:00
3:51 AM,41.0,28.0,60,29.74,10.0,WNW,15.0,28.8,0.00,,Overcast,300,2013-01-29 10:51:00
4:51 AM,39.9,27.0,60,29.74,10.0,West,18.4,23.0,0.00,Rain,Light Rain,280,2013-01-29 11:51:00
5:51 AM,39.2,26.6,61,29.86,10.0,West,18.4,23.0,N/A,,Overcast,280,2013-01-29 12:51:00
6:51 AM,39.9,24.1,53,29.75,10.0,West,19.6,32.2,N/A,,Mostly Cloudy,270,2013-01-29 13:51:00
7:51 AM,39.2,23.0,52,29.87,10.0,West,21.9,28.8,N/A,,Mostly Cloudy,270,2013-01-29 14:51:00
8:51 AM,39.0,24.1,55,29.81,10.0,West,21.9,27.6,N/A,,Mostly Cloudy,270,2013-01-29 15:51:00
9:51 AM,37.4,24.8,60,29.89,7.0,West,18.4,-,N/A,Snow,Light Snow,270,2013-01-29 16:51:00
10:51 AM,41.0,23.0,49,29.82,5.0,West,29.9,38.0,0.00,,Unknown,270,2013-01-29 17:51:00
10:59 AM,35.6,28.4,75,29.90,1.0,West,32.2,40.3,0.00,Snow,Light Snow,260,2013-01-29 17:59:00
11:12 AM,35.6,30.2,81,29.89,7.0,West,26.5,36.8,0.00,Snow,Light Snow,260,2013-01-29 18:12:00
11:51 AM,39.9,21.9,49,29.82,10.0,West,26.5,40.3,0.00,,Mostly Cloudy,280,2013-01-29 18:51:00
12:51 PM,41.0,14.0,33,29.79,7.0,West,18.4,41.4,N/A,,Mostly Cloudy,270,2013-01-29 19:51:00
1:51 PM,43.0,10.9,27,29.78,7.0,West,26.5,41.4,N/A,,Mostly Cloudy,280,2013-01-29 20:51:00
2:51 PM,43.0,12.0,28,29.80,4.0,West,24.2,49.5,N/A,,Widespread Dust,280,2013-01-29 21:51:00
3:51 PM,43.0,10.9,27,29.81,7.0,West,31.1,41.4,N/A,,Overcast,270,2013-01-29 22:51:00
4:51 PM,43.0,12.0,28,29.81,10.0,West,23.0,43.7,N/A,,Mostly Cloudy,270,2013-01-29 23:51:00
5:51 PM,42.1,12.0,29,29.83,10.0,West,29.9,43.7,N/A,,Scattered Clouds,280,2013-01-30 00:51:00
6:51 PM,41.0,10.9,29,29.87,7.0,WNW,27.6,42.6,N/A,,Scattered Clouds,300,2013-01-30 01:51:00
7:51 PM,41.0,12.0,31,29.92,10.0,WNW,31.1,42.6,N/A,,Partly Cloudy,300,2013-01-30 02:51:00
8:51 PM,39.0,14.0,36,29.95,10.0,WNW,27.6,40.3,N/A,,Partly Cloudy,290,2013-01-30 03:51:00
9:51 PM,39.0,15.1,38,29.96,10.0,WNW,21.9,29.9,N/A,,Clear,300,2013-01-30 04:51:00
10:51 PM,37.9,16.0,41,29.97,10.0,WNW,21.9,32.2,N/A,,Clear,290,2013-01-30 05:51:00
11:51 PM,37.9,17.1,43,29.99,10.0,WNW,24.2,40.3,N/A,,Scattered Clouds,290,2013-01-30 06:51:00